Location: Wien
(48.2082°N, 16.3738°E)
Time: 18:42:37
(UTC+01:00)

SO-50 - Visible Passes

Search period start: 19 March 2019 00:00
Search period end: 29 March 2019 00:00
Orbit: 585 x 701 km, 64.6° (Epoch: 18 March)

Date Brightness Start Highest point End Pass type
(mag) Time Alt. Az. Time Alt. Az. Time Alt. Az.
19 Mar ? 18:55:47 10° NNW 19:00:32 43° NE 19:04:29 14° ESE visible
19 Mar ? 20:36:28 10° NW 20:40:57 36° WSW 20:42:08 31° SSW visible
20 Mar ? 19:20:50 10° NW 19:25:49 81° NE 19:29:27 18° SE visible
20 Mar ? 21:02:32 10° WNW 21:05:41 17° WSW 21:07:08 15° SW visible
21 Mar ? 19:46:06 10° NW 19:50:53 50° WSW 19:54:32 16° SSE visible
22 Mar ? 20:11:47 10° WNW 20:15:42 24° WSW 20:19:31 10° SSW visible
23 Mar ? 18:55:48 10° NW 19:00:44 69° SW 19:05:34 10° SSE visible
23 Mar ? 20:39:12 10° W 20:40:17 11° WSW 20:41:22 10° WSW visible
24 Mar ? 19:21:16 10° NW 19:25:40 33° WSW 19:29:58 10° S visible
25 Mar ? 19:47:29 10° WNW 19:50:21 16° WSW 19:53:11 10° SW visible
27 Mar ? 18:56:38 10° WNW 19:00:23 22° WSW 19:04:03 10° SSW visible
